Contact Us:
Email: info@sawbill.com
Phone: (218)663-7150
Fax: (218)663-7980
Mail: 4620 Sawbill Trail
Box 2129
Tofte, MN 55615


Powered by
Movable Type 3.15
 
Sawbill Weather History Archives: May 2016
Current Sawbill Weather History | « April 2016 | June 2016 »


Date

High
Temperature

Low
Temperature

Barometric
Pressure

Relative
Humidity 7AM

9 AM
Temperature

Moisture

Snow

5/31/16 55 48 29.98 95% 56 .18"
5/30/16 75 46 30.00 81% 46 0
5/29/16 62 52 30.00 96% 54 .39"
5/28/16 64 56 29.92 98% 58 .22"
5/27/16 67 51 29.96 98% 56 1.07"
5/26/16 64 51 29.98 84% 52 0
5/25/16 64 50 29.94 94% 56 .02"
5/24/16 70 51 30.04 88% 52 .09"
5/23/16 78 49 30.00 81% 57 .47"
5/22/16 78 49 29.98 48% 51 0
5/21/16 77 45 30.14 61% 49 0
5/20/16 70 43 30.20 47% 55 0
5/19/16 72 48 30.12 58% 52 0
5/18/16 67 37 30.16 59% 38 0
5/17/16 58 35 30.24 53% 41 0
5/16/16 52 34 30.24 67% 35 0
5/15/16 51 32 30.04 80% 38 .19"
5/14/16 36 27 30.00 59% 27 .02" Trace
5/13/16 42 26 30.02 72% 27 .06" Trace
5/12/16 57 38 29.96 56% 38 0
5/11/16 57 45 29.98 87% 47 .3"
5/10/16 62 42 30.10 39% 50 0
5/9/16 60 37 30.10 40% 46 0
5/8/16 66 36 30.08 56% 45 0
5/7/16 56 27 30.08 92% 36 0
5/6/16 84 41 30.00 50% 43 .02"
5/5/16 69 37 29.94 45% 57 0
5/4/16 54 33 30.04 65% 37 0
5/3/16 61 31 30.00 55% 37 .04"
5/2/16 64 29 30.08 45% 50 0
5/1/16 51 32 30.24 43% 36 0
 


Home I Trip Planning I Rentals and Outfitting I Reservations I Campgrounds I Sawbill Store I Sawbill News I Contact

© 1997 - 2017, Sawbill Canoe Outfitters, Inc. I Privacy Policy